Regional Weather Roundup
Issued by NWS

Home | Current Version | Previous Version | Graphics & Text | Print | Product List | Glossary On
Versions: 1 2 3 4 5 6 7 8 9 10 11 12 13 14 15 16 17 18 19 20 21 22 23 24 25 26 27 28 29 30 31 32 33 34 35 36 37 38 39 40 41 42 43 44 45 46 47 48 49 50
000
ASUS43 KMPX 232101
RWRMN
WEATHER ROUNDUP FOR MINNESOTA
NATIONAL WEATHER SERVICE TWIN CITIES/CHANHASSEN MN
400 PM CDT WED APR 23 2014


NOTE: "FAIR" INDICATES FEW OR NO CLOUDS BELOW 12,000 FEET WITH NO
SIGNIFICANT WEATHER AND/OR OBSTRUCTIONS TO VISIBILITY. N/A MEANS
CURRENT SKY AND/OR WEATHER CONDITIONS ARE NOT AVAILABLE.

MNZ060>063-068>070-232200-
   Twin Cities Metro

CITY           SKY/WX    TMP DP  RH WIND       PRES   REMARKS
TWIN CITIES    LGT RAIN  41  37  86 E20       30.01F
ST PAUL        CLOUDY    41  36  82 SE12      30.05F
CRYSTAL        LGT RAIN  42  35  76 SE12G20   30.01F
BLAINE         LGT RAIN  43  39  87 SE12G20   30.03
EDEN PRAIRIE   LGT RAIN  41  36  82 E16G23    29.97F
LAKEVILLE      LGT RAIN  37  36  93 E16       29.99F
SOUTH ST PAUL  CLOUDY    42  40  92 SE10G20   30.03F
LAKE ELMO      DRIZZLE   41  37  87 SE6       30.06S
$$
MNZ001>005-007-008-013>017-022>024-027-028-232200-
   Northwest Minnesota

CITY           SKY/WX    TMP DP  RH WIND       PRES   REMARKS
BEMIDJI        CLOUDY    50  24  37 SE20G26   29.92S
HALLOCK        LGT RAIN  46  41  81 S18       29.87S
ROSEAU         CLOUDY    57  21  24 SE17      29.90F
WARROAD        CLOUDY    55  28  35 SE16      29.91F
THIEF RVR FALL CLOUDY    45  36  70 SE13      29.89S
CROOKSTON      LGT RAIN  43  43 100 S16       29.89R
FOSSTON        DRIZZLE   43  37  81 SE14G23   29.90S
DETROIT LAKES  RAIN      37  37 100 SE24G35   29.86F
MOORHEAD       RAIN      43  43 100 SE18G26   29.86R
PARK RAPIDS    RAIN      40  37  89 SE15      29.94S FOG
$$
MNZ006-009>011-018-025>026-232200-
   North Central Minnesota

CITY           SKY/WX    TMP DP  RH WIND       PRES   REMARKS
BAUDETTE       CLOUDY    56  23  27 SE13G23   29.93F
FLAG ISLAND    PTSUNNY   52  21  30 E7G17     29.93F
INTL FALLS     CLOUDY    55  24  30 SE15G21   29.98F
WASKISH        CLOUDY    55  27  33 SE14G20   29.93F
BIG FORK       CLOUDY    54  21  28 SE9G20    29.96F
LONGVILLE      CLOUDY    48  25  40 SE10G16   29.96S
GRAND RAPIDS   CLOUDY    52  21  30 SE13G22   29.97F
CRANE LAKE     CLOUDY    55  19  24 S8        30.03F
ORR            CLOUDY    55  16  21 SE9G18    29.97F
COOK           CLOUDY    54  21  28 S10G16    30.00F
$$
MNZ012-019>021-037-232200-
   Northeast Minnesota

CITY           SKY/WX    TMP DP  RH WIND       PRES   REMARKS
DULUTH         CLOUDY    48  25  40 E15       30.03F
ELY            CLOUDY    52  18  25 SE14      30.03F
HIBBING        CLOUDY    53  22  29 SE14      30.00F
EVELETH        CLOUDY    52  23  32 S13G18    30.02F
DULUTH HARBOR  CLOUDY    36  30  80 CALM      30.07F
TWO HARBORS    CLOUDY    46  27  46 E14       30.04F
SILVER BAY     CLOUDY    45  30  57 NE6       30.07S
GRAND MARAIS     N/A     40  27  59 CALM      30.12F
G MARAIS ARPRT CLOUDY    43  19  39 SE6       30.10F
$$
MNZ029>031-032-039>041-046>048-054>057-064-232200-
   West Central Minnesota

CITY           SKY/WX    TMP DP  RH WIND       PRES   REMARKS
FERGUS FALLS   CLOUDY    41  39  93 SE25G32   29.81S
WHEATON        CLOUDY    45  39  81 SE31G40   29.80R THUNDER
MORRIS         CLOUDY    43  36  75 SE29G36   29.81F
ALEXANDRIA     CLOUDY    40  37  89 E21G29    29.90F
ELBOW LAKE     RAIN      41  37  86 SE25G44   29.79F
WADENA         RAIN      37  36  93 SE16      29.93F
GLENWOOD       CLOUDY    39  37  93 E22G29    29.89F
APPLETON       CLOUDY    45  36  70 SE21G31   29.82S
BENSON         CLOUDY    43  36  75 SE21G33   29.85F
ORTONVILLE     CLOUDY    43  36  75 SE23G35   29.80S
MADISON        CLOUDY    46  39  76 SE26G37   29.80R
WILLMAR        FAIR      43  36  75 SE24G33   29.89F
$$
MNZ033>034-036-042>043-049>051-058-059-232200-
   Central Minnesota

CITY           SKY/WX    TMP DP  RH WIND       PRES   REMARKS
ST CLOUD       LGT RAIN  41  37  86 E10G18    29.97F FOG
SAUK CENTRE    CLOUDY    39  37  93 SE17G23   29.93F
PAYNESVILLE    CLOUDY    40  37  90 E18G30    29.93F
AITKIN         CLOUDY    52  21  30 SE12      29.97F
PINE RIVER     LGT RAIN  43  34  70 SE18G24   30.01R
BRAINERD       LGT RAIN  46  35  65 SE10      29.97F
STAPLES        RAIN      37  36  93 SE7       29.97R
LONG PRAIRIE   CLOUDY    37  36  93 E16G28    29.94F
LITTLE FALLS   MIX PCPN  37  36  93 SE9G20    29.99S
LITCHFIELD     CLOUDY    43  39  87 E16G25    29.93F
BUFFALO        RAIN      40  37  89 E16G22    29.98F
MAPLE LAKE     RAIN      41  40  94 E13       29.97F
$$
MNZ037-044-045-052-053-232200-
   East Central Minnesota

CITY           SKY/WX    TMP DP  RH WIND       PRES   REMARKS
PRINCETON      LGT RAIN  43  36  75 SE15G21   30.02S
MORA           CLOUDY    46  27  46 S9        30.03F
CAMBRIDGE      LGT RAIN  48  34  57 S13G20    30.00F
RUSH CITY      CLOUDY    49  28  44 SE9       30.03S
MOOSE LAKE     CLOUDY    50  27  40 SE8       30.00F
HINCKLEY       CLOUDY    52  28  40 E7        30.01F
CLOQUET        CLOUDY    48  23  37 E9        30.03F
MCGREGOR       CLOUDY    50  27  40 SE13G18   29.99F
$$
MNZ071>073-080-081-089-090-097-098-232200-
   Southwest Minnesota

CITY           SKY/WX    TMP DP  RH WIND       PRES   REMARKS
MONTEVIDEO     CLOUDY    43  37  81 SE25G38   29.83F
GRANITE FALLS  CLOUDY    43  35  72 E20G33    29.84F
CANBY          CLOUDY    46  38  74 SE28G35   29.79S
MARSHALL       CLOUDY    46  36  66 SE25G35   29.78S
REDWOOD FALLS  CLOUDY    44  35  70 E22G32    29.85F
OLIVIA         CLOUDY    43  36  75 SE21G28   29.86F
PIPESTONE      MOSUNNY   54  39  58 S28G40    29.72F
WINDOM         CLOUDY    46  37  71 SE25G35   29.82F
WORTHINGTON    CLOUDY    48  34  57 SE33G39   29.79F
JACKSON        CLOUDY    46  36  66 SE26G35   29.84F
TRACY          CLOUDY    47  37  68 SE25G38   29.78F
SLAYTON        CLOUDY    47  37  67 SE31G39   29.77F
$$
MNZ065>067-074>077-082>085-091>093-232200-
   South Central Minnesota

CITY           SKY/WX    TMP DP  RH WIND       PRES   REMARKS
MANKATO        CLOUDY    45  36  70 SE18      29.94F
NEW ULM        CLOUDY    43  37  81 E17G24    29.89F
ST JAMES       CLOUDY    46  37  71 E24       29.88F
FAIRMONT       CLOUDY    45  34  65 SE24G33   29.90F
GLENCOE        CLOUDY    42  36  78 E15G21    29.95F
FARIBAULT      CLOUDY    46  34  61 E14       29.97F
OWATONNA       CLOUDY    45  34  65 E15G24    29.96F
WASECA         DRIZZLE   43  32  65 E17       29.97F
ALBERT LEA     CLOUDY    45  36  70 SE17G23   29.94F
$$
MNZ078>079-086>088-094>096-232200-
   Southeast Minnesota

CITY           SKY/WX    TMP DP  RH WIND       PRES   REMARKS
ROCHESTER      CLOUDY    47  30  51 SE17      30.00F
RED WING       CLOUDY    41  36  81 E10       30.05F
STANTON        LGT RAIN  42  36  79 E17G23    29.98F
DODGE CENTER   CLOUDY    46  30  53 E18       29.98F
WINONA         CLOUDY    46  34  61 E8        30.07F
AUSTIN         LGT RAIN  46  34  61 SE18G25   29.95F
PRESTON        CLOUDY    48  29  47 SE14G21   30.02F
$$
ABBREVIATIONS USED IN REMARKS
   TC - TEMPERATURES IN CELSIUS
  WCI - WIND CHILL INDEX
   HX - HEAT INDEX
  VSB - VISIBILITY
$$


USA.gov is the U.S. government's official web portal to all federal, state and local government web resources and services.